COSMOS 252 DEB *, 3686

Orbit data source: Space-Track

COSMOS 252 DEB *, 3686 is space debris in LEO originally from a launch on Fri, 01 Nov 1968 UTC launched from the Tyuratam Missile And Space Complex (TTMTR). Debris objects in space refer to the collection of defunct objects orbiting the Earth. Examples of debris include non-operational satellites, rocket bodies, and fragments generated from explosions, collisions, or faulty payload assembly.

Loading next visibility...
Identifier
3686, 1968-097AD
Orbit
LEO
Country
Flag of CISCIS
Related business
Manufacturer
Unknown
Mission
Spacecraft
Bus & Motor
Unknown
Mass
Unknown
Launch date (UTC)
1968-11-01 (57 years ago)
Launch vehicle
Unknown
Launch site
Tyuratam Missile And Space Complex (TTMTR)
Object type
Payload
Rocket body
Debris
Shape & HBR
Unknown shape, 0.1 m
Radar Cross Section
Small (<0.1 m²)

Expand to show TLE details & history
Last TLE update: 6 hours ago

TLE from 6 hours ago
0 COSMOS 252 DEB *
1 03686U 68097AD  25352.90181979  .00001874  00000-0  17112-2 0  9998
2 03686  62.2568 204.0868 0648248 130.7455 235.1714 13.17019275673015
Epoch: 2025-12-18T21:38Z
TLE epoch observation values (Epoch: 2025-12-18T21:38:37.229Z)
Latitude
-0.00004°
Longitude
151.68099°
Altitude
1,498.517 km
Speed
6.973 km/s
True Right ascension
13h 36m 20s
True Declination
0° 00' 00"
Sunlit
Object was in daylight at epoch
Visualization orbit readout
Latitude
Unknown
Longitude
Unknown
Altitude
Unknown
Speed
Unknown
Apparent Right ascension
Unknown
Apparent Declination
Unknown
Sunlit
N/A
Visualization observer readout
Local Sidereal Time
02:06:24
Azimuth
Unknown
Elevation
Unknown
Doppler factor
Unknown
Orbital elements
Apogee altitude
1,686.042 km
Perigee altitude
704.174 km
Semi-major axis
7,573.245 km
Eccentricity
0.06482
Inclination
62.2568°
RAAN
204.0868°
Arg. of periapsis
130.7455°
True anomaly
229.35382°
Mean anomaly
235.1714°
Eccentric anomaly
232.23522°
Mean motion
3.29322 °/min
Orbital period
109.32 mins
BSTAR
0.0017112
Loading maneuver chart data...
Computing Atmospheric mass density...

Documentation

Showing up to 5 results
|